Flag for U.S.A. Weather past 2 weeks in Salina, Kansas, U.S.A.

Now
73 °F

Mostly cloudy.


Feels Like: 71 °F
Forecast: 72 / 85 °F
Wind: 8 mph from Southeast

Location: Salina Municipal Airport

Current Time: Aug 28, 2014 at 8:42:39 AM

Latest Report: Aug 28, 2014 at 7:53 AM


Visibility: 7 mi

Pressure: 29.90 "Hg

Humidity: 88%

Dew point: 69 °F

Location of SalinaLocation

Historic Weather in Salina — Graph

°F

Salina temperature yesterday

Maximum temperature yesterday: 87 °F (at 12:53 PM)
Minimum temperature yesterday: 74 °F (at 5:53 AM)
Average temperature yesterday: 82 °F

Past Weeks' High & Low Weather Summary

 TemperatureHumidityPressure
High102 °F (Aug 24, 3:53 PM)93% (Aug 17, 11:00 PM)30.13 "Hg (Aug 17, 11:00 PM)
Low60 °F (Aug 13, 6:53 AM)19% (Aug 23, 5:53 PM)29.71 "Hg (Aug 19, 6:53 PM)
Average83 °F57%29.86 "Hg
* Reported Aug 13 6:53 AM — Aug 28 6:53 AM, Salina, Weather by CustomWeather, © 2014

Note: Actual official high and low records may vary slightly from our data, if they occured in-between our weather recording intervals... More about our weather records

Advertising

Salina weather history for previous 24 hours

 ConditionsComfort  
Time TempWeatherWind HumidityBarometerVisibility
6:53 AM
Aug 28
73 °FThundershowers. Fog.7 mph88%29.92 "Hg6 mi
5:53 AM76 °FLight rain. Clear.7 mph80%29.90 "Hg9 mi
4:53 AM78 °FLight rain. Clear.6 mph69%29.89 "Hg10 mi
3:53 AM80 °FPassing clouds.8 mph62%29.88 "Hg10 mi
2:53 AM80 °FPassing clouds.7 mph62%29.89 "Hg10 mi
1:53 AM80 °FPartly cloudy.7 mph64%29.90 "Hg10 mi
12:53 AM80 °FLight rain. Passing clouds.9 mph64%29.92 "Hg10 mi
11:53 PM
Aug 27
82 °FPassing clouds.8 mph58%29.91 "Hg10 mi
10:53 PM83 °FMostly cloudy.8 mph57%29.92 "Hg10 mi
9:53 PM84 °FPassing clouds.7 mph53%29.93 "Hg10 mi
8:53 PM85 °FOvercast.7 mph55%29.94 "Hg10 mi
7:53 PM85 °FPassing clouds.3 mph55%29.94 "Hg10 mi
6:53 PM85 °FScattered clouds.No wind57%29.95 "Hg10 mi
5:53 PM86 °FOvercast.No wind51%29.96 "Hg10 mi
4:53 PM86 °FPartly sunny.6 mph51%29.97 "Hg10 mi
3:53 PM87 °FSunny.6 mph50%30.00 "Hg10 mi
2:53 PM86 °FSunny.6 mph49%30.02 "Hg10 mi
1:53 PM87 °FSunny.3 mph48%30.04 "Hg10 mi
12:53 PM87 °FSunny.No wind48%30.06 "Hg10 mi
11:53 AM84 °FSunny.No wind53%30.07 "Hg10 mi
10:53 AM84 °FSunny.7 mph53%30.06 "Hg10 mi
9:53 AM84 °FSunny.13 mph55%30.06 "Hg10 mi
8:53 AM79 °FPassing clouds.13 mph65%30.06 "Hg10 mi
Weather by CustomWeather, © 2014

See weather overviewHow to use our weather pages